Regional Weather Roundup
Issued by NWS Northern Indiana

Home | Current Version | Previous Version | Text Only | Print | Product List | Glossary Off
Versions: 1 2 3 4 5 6 7 8 9 10 11 12 13 14 15 16 17 18 19 20 21 22 23 24 25 26 27 28 29 30 31 32 33 34 35 36 37 38 39 40 41 42 43 44 45 46 47 48 49 50

000
ASUS43 KIWX 021100
RWRIWX

KIWX WEATHER ROUNDUP
NATIONAL WEATHER SERVICE NORTHERN INDIANA
700 AM EDT THU OCT 02 2014

NOTE: "FAIR" INDICATES FEW OR NO CLOUDS BELOW 12,000 FEET WITH NO
SIGNIFICANT WEATHER AND/OR OBSTRUCTIONS TO VISIBILITY.

* THESE STATIONS ARE NOT UNDER NWS QUALITY CONTROL. THEY ALSO MAY NOT
  REPORT WEATHER SUCH AS PRECIPITATION OR FOG.

INZ001>027-021200-
NORTHERN INDIANA

CITY           SKY/WX    TMP DP  RH WIND       PRES   REMARKS
GARY*          MOCLDY    64  57  77 S7        29.88F
SOUTH BEND     CLOUDY    63  54  72 SE9       29.94S
GOSHEN         CLOUDY    61  50  67 SE9       29.95R
WARSAW*        CLOUDY    59  50  72 SE8       29.95S
ANGOLA*        MOCLDY    55  50  82 SE7       29.99S
FORT WAYNE     CLOUDY    56  50  80 SE7       29.99R
PERU/GRISSOM   CLOUDY    60  58  93 S8        29.95R

$$
INZ028>050-021200-
CENTRAL INDIANA

CITY           SKY/WX    TMP DP  RH WIND       PRES   REMARKS
LAFAYETTE      LGT RAIN  62  59  90 S5        29.93R
KOKOMO*        CLOUDY    61  52  72 S9        29.96R
MUNCIE*        PTCLDY    62  54  74 S7        29.98R
INDIANAPOLIS   CLOUDY    61  56  83 SE7       29.95R

$$
MIZ043>046-050>051-056>058-064>065-071>073-077>080-021200-
SOUTHWEST LOWER MICHIGAN

CITY           SKY/WX    TMP DP  RH WIND       PRES   REMARKS
BATTLE CREEK   CLOUDY    59  50  72 SE8       29.98R
BENTON HARBOR  HVY RAIN  57  55  93 E5        29.92S FOG
COLDWATER*     MOCLDY    58  52  81 SE8       29.98S
HILLSDALE*     CLOUDY    55  54  97 SE7       30.01S FOG
GRAND RAPIDS   CLOUDY    59  54  83 S8        29.96S
STURGIS*       CLOUDY    59  52  77 SE9       29.96S
THREE RIVERS*  LGT RAIN  60  52  75 CALM      29.96S

$$
OHZ001>008-015>018-024>025-021200-
NORTHWEST OHIO

CITY           SKY/WX    TMP DP  RH WIND       PRES   REMARKS
DEFIANCE       PTCLDY    53  49  86 E3        30.01R
FINDLAY        MOCLDY    53  50  89 SE8       30.02S FOG
TOLEDO EXPRESS PTCLDY    50  49  96 CALM      30.04R FOG
TOLEDO METCALF CLEAR     50  48  93 SE3       30.05R
LIMA           PTCLDY    58  51  78 SE9       30.02R

$$
AND FOR LAKE MICHIGAN COASTAL AND OPEN LAKE BUOY OBSERVATIONS

STATION/POSITION TEMP    WIND        PRES    VSBY  WAVE
                 AIR SEA DIR/SP/G                  HT/PER
                 (F)     (DEG/KT/KT) (MB)    (MI)  (FT/S)
CALUMET HARBOR    63     150/  6/  9 1010.2F
MICHIGAN CITY     61     120/ 12/ 14   N/A
SAINT JOSEPH      58      CALM  /  5 1013.2F
SOUTH LAKE BUOY   63 62  150/ 17/ 19 1011.5F         4/ 5
4 MI NW BRIDGMAN  62 63  110/ 12/ 16   N/A           1/ 2
MICHIGAN CITY     63 64  150/ 14/ 17   N/A           1/ 2

$$
&&


USA.gov is the U.S. government's official web portal to all federal, state and local government web resources and services.